Terug naar catalogus

FLOCK 4G 14

ActiefWetenschapSSO
NORAD 62667·PAYLOAD·🇺🇸 United States

Gelanceerd Jan 14, 2025 vanaf Vandenberg Space Force Base

Loading…

Volgende Passages (komende 24 uur)

TLE

VersSource: CelesTrak SupGP

Epoch: Sep 14, 2026, 16:45 UTC

1 62667C 25009BL  26257.69800926  .00010856  00000+0  36520-3 0  2570
2 62667  97.3971 339.1655 0004097  20.8136  43.3946 15.30841925    15

Volg FLOCK 4G 14 in realtime met AllMySat

Download on the App Store